Location: CNYAC Observatory
(43.2150°N, 74.9500°W)
Time: 12:58:17
(UTC-04:00)

Daily predictions for brighter satellites

Satellite Brightness Start Highest point End
(mag) Time Altitude Azimuth Time Altitude Azimuth Time Altitude Azimuth
Cosmos 1544 Rocket 3.5 20:05:15 10° S 20:09:37 74° E 20:14:03 10° NNE
ALOS 2.4 20:06:35 10° SSE 20:11:10 59° ENE 20:15:47 10° N
Cosmos 2208 Rocket 4.1 20:07:09 10° S 20:12:25 67° ESE 20:17:48 10° NNE
Cosmos 2369 3.8 20:08:07 10° S 20:13:36 55° ESE 20:19:10 10° NNE
Spot 2 Rocket 4.1 20:08:55 10° S 20:13:58 62° WSW 20:19:01 10° NNW
Cosmos 1980 Rocket 3.7 20:12:57 10° SE 20:15:48 14° E 20:18:39 10° ENE
Cosmos 1975 3.7 20:13:11 10° SSE 20:16:46 30° E 20:20:22 10° NNE
H-2A R/B 3.0 20:13:45 10° SSE 20:17:31 53° ENE 20:21:23 10° N
Helios 1B rocket 3.3 20:14:36 10° N 20:18:39 55° WNW 20:22:40 10° SSW
CZ-4B DEB 2.9 20:18:37 10° S 20:21:53 80° WSW 20:25:12 10° NNW
Lacrosse 5 rocket 1.0 20:18:30 10° NW 20:22:17 84° NE 20:25:54 10° SE
Envisat 4.2 20:20:33 10° ESE 20:24:35 24° ENE 20:28:38 10° NNE
Okean 2 3.7 20:20:43 10° NNW 20:24:53 72° W 20:29:01 10° S
USA 186 1.8 20:22:21 10° SSE 20:25:23 51° ENE 20:28:13 10° N
Iridium 4 Rocket 3.9 20:21:22 10° NNE 20:26:05 38° E 20:30:25 10° SSE
Cosmos 1570 Rocket 4.1 20:21:38 10° SSW 20:26:56 85° WNW 20:32:14 10° NNE
OTV 4 2.5 20:29:45 10° WSW 20:31:54 18° SSW 20:34:01 10° SSE
Meteor 1-12 Rocket 4.3 20:30:56 10° S 20:36:33 62° E 20:42:20 10° NNE
FENGYUN 3A 3.7 20:31:45 10° SSE 20:37:06 83° WSW 20:42:30 10° NNW
CZ-2D R/B 3.4 20:34:06 10° S 20:37:57 79° WSW 20:41:53 10° NNW
Cosmos 1656 3.8 20:35:05 10° S 20:40:30 51° ESE 20:45:53 10° NE
Cosmos 2227 Rocket 2.5 20:37:36 10° NNW 20:43:14 68° WSW 20:48:49 10° SSE
Cosmos 2150 Rocket 4.2 20:39:29 10° N 20:44:30 50° ENE 20:48:42 15° SE
Tiangong 1 0.9 20:42:21 10° W 20:45:28 82° S 20:47:24 21° E
Cosmos 1605 Rocket 4.1 20:41:31 10° S 20:47:52 89° W 20:54:11 10° N
Cosmos 1500 3.4 20:47:27 10° SSE 20:51:02 45° E 20:54:40 10° NNE
ERS-1 Rocket 3.1 20:48:09 12° SE 20:52:38 54° ENE 20:57:32 10° N
Cosmos 1939 Rocket 3.5 20:49:57 17° SE 20:52:42 40° ENE 20:56:38 10° N
Lacrosse 5 2.1 20:48:28 10° NW 20:53:29 58° NE 20:56:52 20° ESE
Cosmos 1461 4.3 20:52:08 10° NW 20:55:49 34° WSW 20:59:22 10° S
Cosmos 2100 Rocket 4.3 20:50:42 10° SSE 20:56:40 47° E 21:02:35 10° NNE
Cosmos 1346 Rocket 4.4 20:53:04 10° NNW 20:56:41 35° W 21:00:19 10° SSW
DELTA 2 R/B (1) 4.1 20:52:51 10° W 20:58:11 47° SSW 21:01:40 20° SE
Cosmos 2082 4.3 20:52:46 10° NNW 20:58:15 55° WSW 21:03:42 10° S
Cosmos 2297 Rocket 2.4 20:52:53 10° NNW 20:58:32 71° WSW 21:04:09 10° SSE
Cosmos 1340 3.8 20:57:42 10° NNE 21:01:00 27° ENE 21:01:55 24° E
SPOT 5 3.7 21:00:31 21° ESE 21:02:57 33° ENE 21:07:14 10° N
Cosmos 2061 Rocket 4.2 20:57:36 10° SSE 21:03:37 48° E 21:09:35 10° NNE
Cosmos 1898 Rocket 3.5 20:58:25 10° NNW 21:03:45 78° ENE 21:07:48 17° SSE
YAOGAN 11 4.1 21:00:22 13° SSE 21:04:19 78° ENE 21:08:47 10° N
Cosmos 1763 Rocket 4.2 21:01:52 18° SE 21:04:34 29° E 21:08:54 10° NE
YAOGAN 6 4.1 21:04:21 20° ENE 21:04:48 20° ENE 21:07:35 10° NNE
H-2A R/B 2.7 21:03:38 25° ESE 21:05:16 35° ENE 21:09:03 10° N
Cosmos 1626 Rocket 4.0 21:03:31 10° NNW 21:07:53 62° W 21:12:11 10° S
Cosmos 1515 3.9 21:09:38 10° NNW 21:13:28 69° W 21:16:39 14° S
Cosmos 1602 Rocket 4.5 21:12:52 10° NNW 21:17:11 49° W 21:21:26 10° SSW
RESURS DK-1 2.3 21:14:43 10° NNW 21:18:52 72° ENE 21:20:28 36° SE
Cosmos 1758 Rocket 4.2 21:15:32 10° N 21:19:32 35° ENE 21:20:18 32° E
Cosmos 468 Rocket 3.8 21:15:03 10° SSW 21:20:10 84° ESE 21:25:20 10° NNE
USA 215 4.3 21:15:54 14° E 21:20:54 37° NNE 21:26:45 10° NW
deb Chang Zheng 4 3.8 21:17:10 10° NNE 21:21:29 47° E 21:23:15 30° SSE
Cosmos 2084 3.7 21:17:54 10° NW 21:21:55 60° SW 21:23:56 28° SSE
CZ-4 DEB 3.5 21:22:57 23° SSW 21:24:36 49° W 21:27:41 10° NNW
Cosmos 841 Rocket 3.9 21:24:57 29° SSE 21:26:58 41° ESE 21:31:50 10° NE
Cosmos 1743 2.6 21:26:39 31° S 21:28:24 72° E 21:32:20 10° NNE
Cosmos 1459 Rocket 3.8 21:22:41 10° S 21:28:43 78° E 21:34:50 10° N
Cosmos 1725 Rocket 4.5 21:28:16 30° SE 21:30:17 38° E 21:35:59 10° NNE
Cosmos 1814 Rocket 4.0 21:25:17 10° SSW 21:30:38 87° ESE 21:35:58 10° NNE
Terra 3.8 21:32:32 14° ENE 21:32:43 14° ENE 21:35:15 10° NNE
Cosmos 1697 Rocket 2.8 21:30:18 10° SSW 21:35:57 78° WNW 21:41:38 10° NNE
OAO 2 Rocket 4.1 21:33:32 10° WSW 21:38:01 32° S 21:38:28 32° S
SL-16 R/B 3.5 21:46:17 24° ENE 21:46:17 24° ENE 21:49:14 10° NE
Cosmos 2058 Rocket 3.3 21:45:00 50° E 21:45:01 50° E 21:49:25 10° NNE
ASTEX 1 3.3 21:46:15 10° N 21:51:17 74° E 21:52:42 47° SSE
Cosmos 1606 Rocket 3.5 21:50:20 42° S 21:51:49 87° W 21:56:17 10° N
ARGOS 3.3 21:53:32 48° ESE 21:54:30 54° ENE 21:59:45 10° N
Cosmos 1842 3.4 21:51:41 10° N 21:55:11 62° NE 21:55:11 62° NE
Cosmos 1980 Rocket 2.2 21:53:19 10° SSW 21:58:59 83° WNW 22:04:44 10° NNE
Lacrosse 5 rocket 3.8 22:00:28 10° WSW 22:00:52 10° WSW 22:01:15 10° SW
Cosmos 1802 Rocket 4.3 21:56:28 10° SSW 22:02:50 69° W 22:09:17 10° N
Envisat 3.9 22:00:25 22° SSW 22:03:20 44° W 22:08:12 10° NNW
SL-08 R/B 4.4 22:00:46 29° S 22:04:09 87° E 22:10:20 10° N
MetOp-B 4.2 22:07:39 46° S 22:09:13 73° WSW 22:14:35 10° NNW
Cosmos 1726 Rocket 4.1 22:14:23 46° SW 22:15:19 57° W 22:19:41 10° N
Cosmos 1666 3.5 22:16:27 48° NNW 22:16:27 48° NNW 22:19:22 10° N
Cosmos 2016 Rocket 4.3 22:11:10 18° SSW 22:15:45 65° W 22:21:56 10° N
H-2A R/B 2.5 22:17:51 43° NE 22:17:51 43° NE 22:22:02 10° N
Meteor 2-5 Rocket 4.4 22:12:59 10° N 22:18:28 41° ENE 22:18:28 41° ENE
Meteor 1-15 Rocket 4.2 22:19:19 56° S 22:20:41 87° E 22:26:36 10° N
Tiangong 1 4.0 22:18:56 10° W 22:19:22 13° W 22:19:22 13° W
CZ-4B R/B 3.7 22:17:15 10° NNE 22:21:04 55° NE 22:21:04 55° NE
Cosmos 1375 Rocket 4.5 22:25:11 63° ESE 22:25:15 63° ESE 22:31:46 10° NE
Cosmos 2263 Rocket 2.7 22:20:12 10° NNW 22:25:29 45° ENE 22:25:29 45° ENE
Cosmos 2322 Rocket 2.3 22:32:37 61° NE 22:32:37 61° NE 22:37:21 10° NNE
SL-08 RB Rocket 4.0 22:33:41 68° NW 22:33:41 68° NW 22:37:48 10° NNW
Cosmos 2098 Rocket 4.3 22:29:39 27° SSW 22:33:29 63° W 22:39:13 10° N
Lacrosse 5 3.3 22:31:57 10° WNW 22:36:04 27° WSW 22:36:04 27° WSW
SPOT 1/Viking Rocket 3.8 22:36:07 58° WSW 22:36:29 60° WSW 22:41:40 10° NNW
SPOT 5 4.4 22:39:47 27° WSW 22:40:58 30° W 22:45:14 10° NW
H-2A R/B 4.1 22:40:46 19° WSW 22:41:24 19° W 22:44:26 10° NW
Cosmos 1125 Rocket 4.0 22:46:55 10° NNW 22:51:36 52° W 22:51:36 52° W
Cosmos 2228 4.4 22:54:37 36° NW 22:54:37 36° NW 22:57:49 10° N
Cosmos 2346 Rocket 4.5 22:56:57 10° N 23:03:02 77° W 23:03:02 77° W
USA 215 3.1 23:03:14 85° E 23:03:27 87° NE 23:10:01 10° NW
Terra 2.9 23:11:26 42° NNW 23:11:26 42° NNW 23:14:38 10° NNW
Cosmos 2278 Rocket 4.3 23:09:24 10° N 23:12:37 15° NE 23:13:01 15° NE
SL-16 R/B 3.1 23:28:05 44° WNW 23:28:19 44° WNW 23:33:45 10° NNE
Cosmos 1844 Rocket 4.0 23:32:43 10° NNW 23:36:28 33° NNE 23:36:28 33° NNE
Cosmos 2360 Rocket 3.5 23:45:50 35° NNE 23:45:50 35° NNE 23:49:02 10° NNE
